Location: Ponte Samoggia
(44.5667°N, 11.1333°E)
Time: 22:39:56
(UTC+00:00)

Cosmos 614 Rocket - Pass Details

Date: 26 May 2022
Orbit: 732 x 764 km, 74.1° (Epoch: 29 June)

Event Time Altitude Azimuth Distance (km) Brightness Sun altitude
Rises 01:55:58 0° 335° (NNW) 3,216 7.6 -14.5°
Reaches altitude 10° 01:58:22 10° 331° (NNW) 2,292 6.7 -14.2°
Maximum altitude 02:03:27 57° 254° (WSW) 891 4.1 -13.6°
Drops below altitude 10° 02:08:32 10° 177° (S) 2,289 6.1 -13.0°
Enters shadow 02:09:14 - 175° (S) 2,558 6.3 -12.9°
